G4CVN Weather Reports


Display with metric or nautical units.
time (UTC)temp
F
wind
direction
speed
MPH
gust
MPH
rain 1hr
in
rain 24hr
in
rain mn
in
humidity
%
barometer
mb
20260509082517 61 0.0 1.0 0.00 0.00 0.00 77 1021.9
20260509081517 60 0.0 4.0 0.00 0.00 0.00 80 1021.9
20260509080517 58 0.0 2.0 0.00 0.00 0.00 83 1021.8
20260509075517 57 0.0 2.0 0.00 0.00 0.00 87 1021.9
20260509074517 56 0.0 1.0 0.00 0.00 0.00 89 1021.9
20260509073537 54 0.0 2.0 0.00 0.00 0.00 91 1021.7
20260509072517 53 0.0 1.0 0.00 0.00 0.00 92 1021.8
20260509071557 52 0.0 0.0 0.00 0.00 0.00 93 1021.7
20260509070517 52 0.0 1.0 0.00 0.00 0.00 94 1021.7
20260509065517 51 0.0 1.0 0.00 0.00 0.00 94 1021.7
20260509064517 50 0.0 1.0 0.00 0.00 0.00 94 1021.6
20260509063537 49 0.0 1.0 0.00 0.00 0.00 95 1021.5
20260509062517 49 0.0 2.0 0.00 0.00 0.00 95 1021.5
20260509061517 48 0.0 1.0 0.00 0.00 0.00 95 1021.5
20260509060517 47 0.0 1.0 0.00 0.00 0.00 96 1021.5
20260509055517 46 0.0 1.0 0.00 0.00 0.00 96 1021.5
20260509054537 44 0.0 1.0 0.00 0.00 0.00 96 1021.4
20260509053517 43 0.0 0.0 0.00 0.00 0.00 95 1021.4
20260509052517 42 0.0 0.0 0.00 0.00 0.00 94 1021.4
20260509051537 42 0.0 0.0 0.00 0.00 0.00 93 1021.3
20260509050517 41 0.0 0.0 0.00 0.00 0.00 93 1021.4
20260509045517 41 0.0 0.0 0.00 0.00 0.00 92 1021.4
20260509044517 41 0.0 0.0 0.00 0.00 0.00 92 1021.4
20260509043537 42 0.0 0.0 0.00 0.00 0.00 92 1021.5
20260509042517 42 0.0 0.0 0.00 0.00 0.00 92 1021.5
20260509041517 42 0.0 0.0 0.00 0.00 0.00 92 1021.5
20260509040557 43 0.0 0.0 0.00 0.00 0.00 92 1021.4
20260509035517 43 0.0 0.0 0.00 0.00 0.00 92 1021.4
20260509034517 43 0.0 1.0 0.00 0.00 0.00 92 1021.5
20260509033557 43 0.0 0.0 0.00 0.00 0.00 92 1021.5
20260509032517 44 0.0 0.0 0.00 0.00 0.00 92 1021.5
20260509031517 44 0.0 0.0 0.00 0.00 0.00 92 1021.4
20260509030517 44 0.0 0.0 0.00 0.00 0.00 92 1021.5
20260509025517 45 0.0 0.0 0.00 0.00 0.00 92 1021.6
20260509024517 45 0.0 0.0 0.00 0.00 0.00 92 1021.6
20260509023557 45 0.0 0.0 0.00 0.00 0.00 93 1021.6
20260509022517 45 0.0 0.0 0.00 0.00 0.00 93 1021.5
20260509021517 44 0.0 0.0 0.00 0.00 0.00 93 1021.4
20260509020517 44 0.0 0.0 0.00 0.00 0.00 93 1021.4
20260509015537 43 0.0 2.0 0.00 0.00 0.00 93 1021.4
20260509014517 43 0.0 0.0 0.00 0.00 0.00 92 1021.6
20260509013517 43 0.0 0.0 0.00 0.00 0.00 91 1021.6
20260509012517 43 0.0 0.0 0.00 0.00 0.00 91 1021.7
20260509011537 43 0.0 0.0 0.00 0.00 0.00 91 1021.7
20260509010517 43 0.0 0.0 0.00 0.00 0.00 91 1021.8
20260509005517 43 0.0 0.0 0.00 0.00 0.00 91 1021.8
20260509004517 43 0.0 0.0 0.00 0.00 0.00 90 1021.8
20260509003517 43 0.0 0.0 0.00 0.00 0.00 90 1021.7
20260509002517 43 0.0 0.0 0.00 0.00 0.00 89 1021.7
20260509001637 43 0.0 0.0 0.00 0.00 0.00 89 1021.8
20260509000517 43 0.0 0.0 0.00 0.00 0.00 89 1021.8
20260508235517 44 0.0 0.0 0.00 0.00 0.00 89 1021.8
20260508234517 44 0.0 0.0 0.00 0.00 0.00 88 1021.8
20260508233517 44 0.0 0.0 0.00 0.00 0.00 88 1021.8
20260508232517 45 0.0 0.0 0.00 0.00 0.00 87 1021.9
20260508231517 45 0.0 0.0 0.00 0.00 0.00 87 1021.9
20260508230517 45 0.0 0.0 0.00 0.00 0.00 87 1022.1
20260508225517 45 0.0 0.0 0.00 0.00 0.00 86 1022.0
20260508224517 46 0.0 0.0 0.00 0.00 0.00 85 1022.0
20260508223517 46 0.0 0.0 0.00 0.00 0.00 85 1021.9
20260508222557 46 0.0 0.0 0.00 0.00 0.00 84 1021.9
20260508221517 47 0.0 0.0 0.00 0.00 0.00 83 1022.0
20260508220517 47 0.0 0.0 0.00 0.00 0.00 82 1021.9
20260508215517 48 0.0 0.0 0.00 0.00 0.00 81 1021.9
20260508214517 48 0.0 0.0 0.00 0.00 0.00 81 1021.9
20260508213537 49 0.0 0.0 0.00 0.00 0.00 81 1021.8
20260508212517 49 0.0 0.0 0.00 0.00 0.00 79 1021.8
20260508211517 50 0.0 0.0 0.00 0.00 0.00 76 1021.7
20260508210537 50 0.0 0.0 0.00 0.00 0.00 76 1021.7
20260508205517 51 0.0 0.0 0.00 0.00 0.00 75 1021.7
20260508204517 52 0.0 0.0 0.00 0.00 0.00 72 1021.7
20260508203517 52 0.0 0.0 0.00 0.00 0.00 72 1021.5
20260508202517 53 0.0 0.0 0.00 0.00 0.00 72 1021.4
20260508201517 54 0.0 0.0 0.00 0.00 0.00 71 1021.3
20260508200517 55 0.0 0.0 0.00 0.00 0.00 70 1021.2
20260508195517 55 0.0 0.0 0.00 0.00 0.00 69 1021.2
20260508194537 56 0.0 0.0 0.00 0.00 0.00 67 1021.0
20260508193517 57 0.0 0.0 0.00 0.00 0.00 67 1020.9
20260508192537 58 0.0 0.0 0.00 0.00 0.00 66 1020.8
20260508191517 59 0.0 1.0 0.00 0.00 0.00 65 1020.8
20260508190517 60 0.0 1.0 0.00 0.00 0.00 63 1020.7
20260508185517 61 0.0 0.0 0.00 0.00 0.00 60 1020.6
20260508184515 61 0.0 1.0 0.00 0.00 0.00 58 1020.5
20260508183517 62 0.0 1.0 0.00 0.00 0.00 58 1020.5
20260508182517 62 225 1.0 2.0 0.00 0.00 0.00 58 1020.4
20260508181535 63 225 1.0 2.0 0.00 0.00 0.00 57 1020.3
20260508180517 64 225 1.0 2.0 0.00 0.00 0.00 55 1020.3
20260508175515 65 90 1.0 3.0 0.00 0.00 0.00 54 1020.3
20260508174515 66 225 1.0 3.0 0.00 0.00 0.00 52 1020.3
20260508173515 67 225 2.0 3.0 0.00 0.00 0.00 51 1020.2
20260508172515 67 203 1.0 3.0 0.00 0.00 0.00 52 1020.2
20260508171515 66 225 1.0 4.0 0.00 0.00 0.00 51 1020.1
20260508170515 67 225 2.0 4.0 0.00 0.00 0.00 49 1020.0
20260508165535 67 225 2.0 5.0 0.00 0.00 0.00 48 1020.0
20260508164515 68 158 2.0 4.0 0.00 0.00 0.00 48 1020.0
20260508163515 68 225 2.0 4.0 0.00 0.00 0.00 47 1020.0
20260508162535 69 203 2.0 5.0 0.00 0.00 0.00 47 1020.0
20260508161515 69 225 2.0 8.0 0.00 0.00 0.00 47 1019.9
20260508160515 69 203 2.0 4.0 0.00 0.00 0.00 47 1019.9
20260508155515 70 225 2.0 5.0 0.00 0.00 0.00 46 1019.8
20260508154515 71 203 2.0 5.0 0.00 0.00 0.00 46 1019.8
20260508153515 71 203 2.0 5.0 0.00 0.00 0.00 46 1019.9
20260508152535 71 248 1.0 4.0 0.00 0.00 0.00 45 1020.0
20260508151536 70 248 1.0 2.0 0.00 0.00 0.00 48 1019.9
20260508150515 70 225 1.0 4.0 0.00 0.00 0.00 49 1019.9
20260508145515 69 203 1.0 3.0 0.00 0.00 0.00 49 1020.0
20260508144515 68 248 1.0 3.0 0.00 0.00 0.00 53 1019.9
20260508143515 67 225 1.0 2.0 0.00 0.00 0.00 55 1020.1
20260508142515 67 248 2.0 4.0 0.00 0.00 0.00 53 1020.1
20260508141515 66 248 1.0 4.0 0.00 0.00 0.00 55 1020.2
20260508140516 65 225 1.0 4.0 0.00 0.00 0.00 59 1020.2
20260508135515 65 225 1.0 2.0 0.00 0.00 0.00 57 1020.1
20260508134515 65 293 1.0 4.0 0.00 0.00 0.00 57 1020.2
20260508133515 66 180 1.0 3.0 0.00 0.00 0.00 57 1020.3
20260508132515 66 225 1.0 3.0 0.00 0.00 0.00 58 1020.3
20260508131515 66 248 1.0 3.0 0.00 0.00 0.00 59 1020.3
20260508130515 66 225 2.0 4.0 0.00 0.00 0.00 60 1020.3
20260508125516 65 203 1.0 3.0 0.00 0.00 0.00 63 1020.3
20260508124535 64 203 1.0 3.0 0.00 0.00 0.00 63 1020.4
20260508123535 63 248 1.0 4.0 0.00 0.00 0.00 62 1020.4
20260508122515 63 225 1.0 3.0 0.00 0.00 0.00 64 1020.4
20260508121515 63 225 1.0 3.0 0.00 0.00 0.00 65 1020.5
20260508120515 63 248 1.0 2.0 0.00 0.00 0.00 66 1020.5
20260508115515 63 248 1.0 2.0 0.00 0.00 0.00 66 1020.4
20260508114515 63 0.0 1.0 0.00 0.00 0.00 67 1020.5
20260508113515 63 248 1.0 3.0 0.00 0.00 0.00 66 1020.5
20260508112515 63 0.0 2.0 0.00 0.00 0.00 66 1020.5
20260508111515 63 248 1.0 3.0 0.00 0.00 0.00 66 1020.6
20260508110515 64 270 2.0 5.0 0.00 0.00 0.00 65 1020.6
20260508105515 63 158 1.0 4.0 0.00 0.00 0.00 67 1020.5
20260508104515 64 225 1.0 3.0 0.00 0.00 0.00 67 1020.4
20260508103516 63 270 1.0 4.0 0.00 0.00 0.00 66 1020.4
20260508102515 62 248 1.0 4.0 0.00 0.00 0.00 68 1020.5
20260508101515 62 248 1.0 4.0 0.00 0.00 0.00 69 1020.5
20260508100515 61 225 2.0 6.0 0.00 0.00 0.00 68 1020.6
20260508095515 61 248 1.0 4.0 0.00 0.00 0.00 71 1020.6
20260508094515 60 293 1.0 4.0 0.00 0.00 0.00 73 1020.6
20260508093515 59 248 1.0 3.0 0.00 0.00 0.00 75 1020.5
20260508092515 58 248 1.0 4.0 0.00 0.00 0.00 75 1020.6
20260508091515 57 248 1.0 3.0 0.00 0.00 0.00 76 1020.5
20260508090515 57 0.0 2.0 0.00 0.00 0.00 76 1020.5
20260508085515 57 270 1.0 4.0 0.00 0.00 0.00 77 1020.6
20260508084555 57 0.0 2.0 0.00 0.00 0.00 80 1020.6
20260508083535 57 270 1.0 2.0 0.00 0.00 0.00 81 1020.6